FW1347 Sea Isle City NJ US current weather conditions

sailwx.info

Wind from 152 at 2 knots gusting 6

Air temperature 8.3° C
Dewpoint 6.8° C

Last reported at 2020-Apr-04 10:01 UTC.
Time now 2020-Apr-04 10:43 UTC

Location: N 39°09' W 074°42'.
View on Google Maps.

See reports from other nearby stations

  
Tides and Currents Weather Stations Pressure Air Temp Water Temp Dewpoint Dewpoint Depression Visibility Wind Speed Wind Dir Waves Ship Positions
date/time (UTC)wind fromknots sea level pressurealtimeterstation pressurevisibilityair tempwater tempwave heightnotes
2020-Apr-04 10:01 152 2 gusting 6 8.3
2020-Apr-04 09:46 160 5 gusting 9 8.3
2020-Apr-04 09:30 160 4 gusting 9 8.9
2020-Apr-04 09:15 141 3 gusting 7 8.9
2020-Apr-04 09:01 151 2 gusting 8 8.9
2020-Apr-04 08:46 154 5 gusting 9 8.9
2020-Apr-04 08:30 154 2 gusting 8 8.9
2020-Apr-04 08:16 155 5 gusting 8 8.9
2020-Apr-04 08:01 155 2 gusting 6 8.9
2020-Apr-04 07:47 143 6 gusting 11 8.9
2020-Apr-04 07:30 148 3 gusting 6 9.4
2020-Apr-04 07:15 139 1 gusting 6 9.4
2020-Apr-04 07:00 138 2 gusting 6 9.4
2020-Apr-04 06:46 148 4 gusting 7 9.4
2020-Apr-04 06:30 146 4 gusting 8 9.4
2020-Apr-04 06:15 143 4 gusting 10 10.0
2020-Apr-04 06:00 136 5 gusting 12 9.4
2020-Apr-04 05:46 141 6 gusting 12 9.4
2020-Apr-04 05:31 140 2 gusting 9 9.4
2020-Apr-04 05:15 132 2 gusting 8 10.0
2020-Apr-04 05:00 140 5 gusting 9 10.0
2020-Apr-04 04:45 148 6 gusting 10 10.0
2020-Apr-04 04:30 139 4 gusting 12 10.0
2020-Apr-04 04:15 138 5 gusting 11 10.0
2020-Apr-04 04:00 131 2 gusting 9 10.0
2020-Apr-04 03:45 139 3 gusting 8 10.0
2020-Apr-04 03:30 143 5 gusting 10 10.0
2020-Apr-04 03:15 144 3 gusting 9 10.0
2020-Apr-04 03:00 139 5 gusting 12 10.0
2020-Apr-04 02:45 147 5 gusting 10 10.6
2020-Apr-04 02:30 139 6 gusting 12 10.6
2020-Apr-04 02:15 134 5 gusting 10 10.6
2020-Apr-04 02:03 134 7 gusting 13 10.6
2020-Apr-04 01:46 133 5 gusting 9 11.1
2020-Apr-04 01:31 135 4 gusting 9 11.1
2020-Apr-04 01:16 138 5 gusting 13 11.1
2020-Apr-04 01:01 138 4 gusting 15 11.1
2020-Apr-04 00:46 139 5 gusting 14 11.1
2020-Apr-04 00:32 134 7 gusting 15 11.7
2020-Apr-04 00:16 134 6 gusting 13 11.7
2020-Apr-04 00:00 135 5 gusting 13 11.7
2020-Apr-03 23:47 139 7 gusting 13 11.7
2020-Apr-03 23:31 137 7 gusting 13 11.7
2020-Apr-03 23:16 137 5 gusting 14 11.7
2020-Apr-03 23:01 138 9 gusting 15 11.7
2020-Apr-03 22:46 139 7 gusting 14 12.2
2020-Apr-03 22:31 139 8 gusting 14 12.2
2020-Apr-03 22:16 143 7 gusting 15 12.2
2020-Apr-03 22:01 139 6 gusting 13 11.7
2020-Apr-03 21:46 143 6 gusting 13 12.2
2020-Apr-03 21:30 136 6 gusting 13 12.2
2020-Apr-03 21:01 136 6 gusting 17 12.2
2020-Apr-03 20:45 127 7 gusting 19 12.2
2020-Apr-03 20:30 143 6 gusting 14 12.2
2020-Apr-03 20:16 131 6 gusting 15 12.2
2020-Apr-03 20:00 153 8 gusting 17 12.8
2020-Apr-03 19:46 137 9 gusting 16 12.8
2020-Apr-03 19:30 143 6 gusting 19 12.8
2020-Apr-03 19:15 139 6 gusting 16 12.8
2020-Apr-03 19:00 141 6 gusting 16 12.8
2020-Apr-03 18:45 134 6 gusting 17 12.2
2020-Apr-03 18:31 131 9 gusting 16 12.2
2020-Apr-03 18:16 139 10 gusting 17 12.2
2020-Apr-03 18:00 141 8 gusting 16 11.7
2020-Apr-03 17:45 141 9 gusting 17 11.7
2020-Apr-03 17:30 138 7 gusting 19 11.7
2020-Apr-03 17:15 133 6 gusting 17 11.1
2020-Apr-03 17:00 143 7 gusting 16 11.1
2020-Apr-03 16:45 139 6 gusting 17 11.1
2020-Apr-03 16:30 141 10 gusting 19 11.1
2020-Apr-03 16:15 148 9 gusting 19 11.1
2020-Apr-03 16:00 146 11 gusting 19 11.1
2020-Apr-03 15:45 138 7 gusting 20 11.1
2020-Apr-03 15:30 141 6 gusting 19 11.1
2020-Apr-03 15:15 146 8 gusting 23 11.1
2020-Apr-03 15:00 135 11 gusting 20 11.1
2020-Apr-03 14:45 139 10 gusting 22 11.1
2020-Apr-03 14:30 142 13 gusting 24 11.1
2020-Apr-03 14:15 139 12 gusting 19 10.6
2020-Apr-03 14:00 139 9 gusting 23 10.6
2020-Apr-03 13:45 142 9 gusting 19 10.0
2020-Apr-03 13:30 138 9 gusting 23 10.0
2020-Apr-03 13:18 144 7 gusting 17 10.0
2020-Apr-03 13:01 134 8 gusting 23 10.0
2020-Apr-03 12:46 142 10 gusting 19 9.4
2020-Apr-03 11:32
2020-Apr-03 11:16
2020-Apr-03 11:00
2020-Apr-03 10:45 143 10 gusting 19 8.3
2020-Apr-03 10:31 139 10 gusting 19 8.3
2020-Apr-03 10:15 136 12 gusting 17 8.9
2020-Apr-03 10:00 129 12 gusting 19 8.9
2020-Apr-03 09:45 137 10 gusting 19 8.9
2020-Apr-03 09:30 131 8 gusting 18 8.9
2020-Apr-03 09:16 135 11 gusting 17 8.9
2020-Apr-03 09:01 139 9 gusting 17 8.9
2020-Apr-03 08:46 136 11 gusting 22 8.9
2020-Apr-03 08:31 134 12 gusting 19 8.9
2020-Apr-03 08:15 127 10 gusting 17 8.9
2020-Apr-03 08:00 129 9 gusting 19 8.9
2020-Apr-03 07:45 136 6 gusting 15 8.9
2020-Apr-03 07:30 136 10 gusting 16 8.9
2020-Apr-03 07:16 133 7 gusting 13 8.9
2020-Apr-03 07:00 133 9 gusting 15 8.9
2020-Apr-03 06:45 134 7 gusting 14 8.9
2020-Apr-03 06:15 128 7 gusting 13 8.9
2020-Apr-03 06:00 135 6 gusting 14 8.9
2020-Apr-03 05:45 134 6 gusting 12 8.9
2020-Apr-03 05:30 133 6 gusting 11 8.9
2020-Apr-03 05:15 128 6 gusting 16 9.4
2020-Apr-03 05:01 134 8 gusting 17 10.0
2020-Apr-03 04:47 140 12 gusting 18 10.0
2020-Apr-03 04:31 136 9 gusting 19 10.0
2020-Apr-03 04:16 138 9 gusting 20 10.0
2020-Apr-03 04:02 139 13 gusting 20 10.6
2020-Apr-03 03:46 138 10 gusting 17 10.6
2020-Apr-03 03:31 139 7 gusting 22 10.6
2020-Apr-03 03:17 135 9 gusting 17 10.6
2020-Apr-03 02:45 139 10 gusting 22 11.1
2020-Apr-03 02:31 134 11 gusting 20 11.1
2020-Apr-03 02:16 140 8 gusting 16 11.7
2020-Apr-03 02:01 140 12 gusting 18 11.7
2020-Apr-03 01:46 133 9 gusting 16 11.7
2020-Apr-03 01:31 136 9 gusting 16 11.7
2020-Apr-03 01:16 141 10 gusting 15 11.7
2020-Apr-03 01:00 136 8 gusting 14 11.1
2020-Apr-03 00:45 137 9 gusting 15 11.7
2020-Apr-03 00:31 133 10 gusting 19 11.7
2020-Apr-03 00:15 138 9 gusting 16 11.7
2020-Apr-03 00:01 135 9 gusting 15 11.7
2020-Apr-02 23:46 141 9 gusting 20 11.7
2020-Apr-02 23:30 138 6 gusting 19 11.7
2020-Apr-02 23:15 141 10 gusting 20 12.2
2020-Apr-02 23:00 140 9 gusting 22 12.2
2020-Apr-02 22:46 138 10 gusting 20 12.8
2020-Apr-02 22:31 138 9 gusting 27 12.8
2020-Apr-02 18:00 140 7 gusting 19 12.2
2020-Apr-02 17:30
2020-Apr-02 17:15
2020-Apr-02 17:00
2020-Apr-02 16:02 10.6
2020-Apr-02 15:01